Flag Weather past 2 weeks in Albany, New York, U.S.A.

Now
31 °F

Light snow. Ice fog.


Feels Like: 22 °F
Forecast: 29 / 35 °F
Wind: 12 mph from North

Location: Albany County Airport

Current Time: Nov 26, 2014 at 11:49:11 PM

Latest Report: Nov 26, 2014 at 10:51 PM


Visibility: 1 mi

Pressure: 29.91 "Hg

Humidity: 89%

Dew point: 28 °F

Location of AlbanyLocation

Historic Weather in Albany — Graph

°F

Albany temperature yesterday

Maximum temperature yesterday: 61 °F (at 12:51 AM)
Minimum temperature yesterday: 36 °F (at 10:51 PM)
Average temperature yesterday: 48 °F

Past Weeks' High & Low Weather Summary

 TemperatureHumidityPressure
High70 °F (Nov 24, 2:51 PM)97% (Nov 17, 11:51 AM)30.45 "Hg (Nov 17, 11:51 AM)
Low17 °F (Nov 21, 11:51 PM)28% (Nov 19, 1:51 PM)29.45 "Hg (Nov 24, 2:51 PM)
Average37 °F62%30.02 "Hg
* Reported Nov 11 10:51 PM — Nov 26 10:51 PM, Albany, Weather by CustomWeather, © 2014

Note: Actual official high and low records may vary slightly from our data, if they occured in-between our weather recording intervals... More about our weather records

Advertising

Albany weather history for previous 24 hours

 ConditionsComfort  
Time TempWeatherWind HumidityBarometerVisibility
10:51 PM
Nov 26
31 °FLight snow. Ice fog.12 mph89%29.91 "Hg1 mi
9:51 PM32 °FLight snow. Ice fog.10 mph88%29.92 "Hg1 mi
8:51 PM32 °FLight snow. Ice fog.9 mph88%29.94 "Hg1 mi
7:51 PM32 °FLight snow. Ice fog.12 mph88%29.96 "Hg1 mi
6:51 PM32 °FLight snow. Ice fog.15 mph88%29.95 "Hg1 mi
5:51 PM32 °FLight snow. Ice fog.10 mph92%29.99 "Hg1 mi
4:51 PM32 °FLight snow. Ice fog.13 mph92%29.98 "Hg1 mi
3:58 PM32 °FSnow. Fog.12 mph92%30.02 "Hg1 mi
2:51 PM32 °FSnow. Fog.9 mph92%30.06 "Hg0 mi
1:51 PM33 °FSnow. Fog.9 mph88%30.10 "Hg1 mi
12:51 PM33 °FSnow. Fog.6 mph92%30.14 "Hg1 mi
12:04 PM33 °FSnow. Fog.5 mph92%30.16 "Hg1 mi
11:51 AM33 °FLight snow. Fog.5 mph92%30.15 "Hg1 mi
10:59 AM36 °FLight snow. Overcast.3 mph70%30.18 "Hg1 mi
9:51 AM38 °FOvercast.5 mph63%30.18 "Hg10 mi
8:51 AM37 °FMore clouds than sun.6 mph67%30.19 "Hg10 mi
7:51 AM37 °FMore clouds than sun.3 mph67%30.24 "Hg10 mi
6:51 AM37 °FOvercast.3 mph67%30.22 "Hg10 mi
5:51 AM37 °FOvercast.6 mph67%30.20 "Hg10 mi
4:51 AM38 °FOvercast.8 mph63%30.21 "Hg10 mi
3:51 AM38 °FOvercast.6 mph63%30.21 "Hg10 mi
2:51 AM39 °FOvercast.6 mph62%30.23 "Hg10 mi
1:51 AM40 °FMostly cloudy.8 mph65%30.21 "Hg10 mi
12:51 AM40 °FMostly cloudy.8 mph65%30.19 "Hg10 mi
11:51 PM
Nov 25
40 °FHigh level clouds.8 mph65%30.18 "Hg10 mi
Weather by CustomWeather, © 2014

See weather overviewHow to use our weather pages